| time (UTC) | temp F | wind direction | speed MPH | gust MPH | rain 1hr in | rain 24hr in | rain mn in | humidity % | barometer mb |
| 20260504201427 | 71 | 272 | 0.0 | 12.0 | 0.00 | 0.00 | 0.00 | 48 | 1005.7 |
| 20260504200442 | 71 | 250 | 0.0 | 0.0 | 0.00 | 0.00 | 0.00 | 49 | 1005.6 |
| 20260504195433 | 71 | 223 | 0.0 | 0.0 | 0.00 | 0.00 | 0.00 | 52 | 1005.9 |
| 20260504194419 | 71 | 215 | 0.0 | 0.0 | 0.00 | 0.00 | 0.00 | 51 | 1006.1 |
| 20260504193423 | 71 | 207 | 1.0 | 11.0 | 0.00 | 0.00 | 0.00 | 50 | 1006.0 |
| 20260504192425 | 71 | 196 | 2.0 | 15.0 | 0.00 | 0.00 | 0.00 | 51 | 1006.5 |
| 20260504190316 | 72 | 216 | 3.0 | 15.0 | 0.00 | 0.00 | 0.00 | 48 | 1006.6 |
| 20260504185316 | 72 | 214 | 0.0 | 0.0 | 0.00 | 0.00 | 0.00 | 47 | 1006.8 |
| 20260504183200 | 72 | 260 | 0.0 | 2.0 | 0.00 | 0.00 | 0.00 | 46 | 1006.4 |
| 20260504182144 | 73 | 240 | 1.0 | 0.0 | 0.00 | 0.00 | 0.00 | 47 | 1006.4 |
| 20260504181113 | 73 | 231 | 1.0 | 16.0 | 0.00 | 0.00 | 0.00 | 44 | 1006.3 |
| 20260504180123 | 73 | 221 | 2.0 | 16.0 | 0.00 | 0.00 | 0.00 | 45 | 1006.3 |
| 20260504175122 | 73 | 195 | 0.0 | 7.0 | 0.00 | 0.00 | 0.00 | 45 | 1006.2 |
| 20260504174059 | 73 | 296 | 2.0 | 14.0 | 0.00 | 0.00 | 0.00 | 43 | 1006.3 |
| 20260504173117 | 73 | 250 | 1.0 | 11.0 | 0.00 | 0.00 | 0.00 | 44 | 1006.3 |
| 20260504172045 | 73 | 209 | 0.0 | 0.0 | 0.00 | 0.00 | 0.00 | 45 | 1006.2 |
| 20260504171030 | 73 | 224 | 0.0 | 4.0 | 0.00 | 0.00 | 0.00 | 45 | 1006.3 |
| 20260504150453 | 66 | 161 | 0.0 | 0.0 | 0.00 | 0.00 | 0.00 | 54 | 1007.5 |
| 20260504141152 | 63 | 248 | 0.0 | 0.0 | 0.00 | 0.00 | 0.00 | 56 | 1007.9 |
| 20260504140204 | 62 | 274 | 0.0 | 0.0 | 0.00 | 0.00 | 0.00 | 57 | 1008.0 |
| 20260504110705 | 50 | 204 | 0.0 | 0.0 | 0.00 | 0.00 | 0.00 | 66 | 1008.2 |
| 20260504081542 | 51 | 194 | 0.0 | 1.0 | 0.00 | 0.00 | 0.00 | 62 | 1009.5 |
| 20260504080556 | 51 | 258 | 0.0 | 0.0 | 0.00 | 0.00 | 0.00 | 61 | 1009.6 |
| 20260504050603 | 54 | 217 | 0.0 | 0.0 | 0.00 | 0.00 | 0.00 | 55 | 1011.1 |
| 20260504044510 | 54 | 123 | 0.0 | 0.0 | 0.00 | 0.00 | 0.00 | 54 | 1011.4 |
| 20260504043442 | 54 | 173 | 0.0 | 0.0 | 0.00 | 0.00 | 0.00 | 54 | 1011.4 |
| 20260504042457 | 54 | 127 | 0.0 | 0.0 | 0.00 | 0.00 | 0.00 | 54 | 1011.5 |
| 20260504041427 | 54 | 115 | 0.0 | 0.0 | 0.00 | 0.00 | 0.00 | 54 | 1011.7 |
| 20260504035214 | 54 | 112 | 0.0 | 0.0 | 0.00 | 0.00 | 0.00 | 57 | 1011.9 |
| 20260504034203 | 54 | 111 | 0.0 | 0.0 | 0.00 | 0.00 | 0.00 | 58 | 1011.9 |
| 20260504033202 | 53 | 111 | 0.0 | 0.0 | 0.00 | 0.00 | 0.00 | 57 | 1012.0 |
| 20260504032202 | 53 | 103 | 0.0 | 0.0 | 0.00 | 0.00 | 0.00 | 58 | 1012.2 |
| 20260504031220 | 53 | 101 | 0.0 | 0.0 | 0.00 | 0.00 | 0.00 | 59 | 1012.2 |
| 20260504030203 | 53 | 97 | 0.0 | 0.0 | 0.00 | 0.00 | 0.00 | 61 | 1012.3 |
| 20260504025159 | 52 | 97 | 0.0 | 0.0 | 0.00 | 0.00 | 0.00 | 62 | 1012.5 |
| 20260504024139 | 52 | 137 | 0.0 | 0.0 | 0.00 | 0.00 | 0.00 | 63 | 1012.5 |
| 20260504023140 | 52 | 120 | 0.0 | 0.0 | 0.00 | 0.00 | 0.00 | 64 | 1012.6 |
| 20260504022132 | 52 | 121 | 0.0 | 0.0 | 0.00 | 0.00 | 0.00 | 64 | 1012.5 |
| 20260504021149 | 52 | 96 | 0.0 | 0.0 | 0.00 | 0.00 | 0.00 | 65 | 1012.6 |
| 20260504020158 | 52 | 108 | 0.0 | 0.0 | 0.00 | 0.00 | 0.00 | 65 | 1012.7 |
| 20260504013959 | 51 | 119 | 0.0 | 0.0 | 0.00 | 0.00 | 0.00 | 66 | 1012.6 |
| 20260504013008 | 51 | 153 | 0.0 | 0.0 | 0.00 | 0.00 | 0.00 | 66 | 1012.6 |
| 20260504010817 | 51 | 120 | 0.0 | 0.0 | 0.00 | 0.00 | 0.00 | 66 | 1012.7 |
| 20260504004639 | 51 | 63 | 0.0 | 0.0 | 0.00 | 0.00 | 0.00 | 67 | 1012.8 |
| 20260504003646 | 51 | 61 | 0.0 | 0.0 | 0.00 | 0.00 | 0.00 | 69 | 1012.6 |
| 20260504002642 | 51 | 51 | 0.0 | 0.0 | 0.00 | 0.00 | 0.00 | 70 | 1012.7 |
| 20260504001624 | 51 | 51 | 0.0 | 0.0 | 0.00 | 0.00 | 0.00 | 68 | 1012.8 |
| 20260504000551 | 51 | 53 | 0.0 | 0.0 | 0.00 | 0.00 | 0.00 | 68 | 1012.7 |
| 20260503235542 | 51 | 54 | 0.0 | 0.0 | 0.00 | 0.00 | 0.00 | 67 | 1012.6 |
| 20260503234533 | 51 | 78 | 0.0 | 0.0 | 0.00 | 0.00 | 0.00 | 66 | 1012.6 |
| 20260503233517 | 51 | 136 | 0.0 | 0.0 | 0.00 | 0.00 | 0.00 | 66 | 1012.5 |
| 20260503232514 | 51 | 144 | 0.0 | 0.0 | 0.00 | 0.00 | 0.00 | 67 | 1012.8 |
| 20260503231515 | 51 | 145 | 0.0 | 0.0 | 0.00 | 0.00 | 0.00 | 67 | 1012.9 |
| 20260503224251 | 52 | 275 | 0.0 | 0.0 | 0.00 | 0.00 | 0.00 | 69 | 1013.7 |
| 20260503223302 | 52 | 280 | 0.0 | 0.0 | 0.00 | 0.00 | 0.00 | 70 | 1014.1 |
| 20260503221103 | 53 | 280 | 0.0 | 0.0 | 0.00 | 0.00 | 0.00 | 66 | 1014.6 |
| 20260503214913 | 54 | 229 | 1.0 | 0.0 | 0.00 | 0.00 | 0.00 | 56 | 1015.3 |
| 20260503213916 | 55 | 258 | 2.0 | 10.0 | 0.00 | 0.00 | 0.00 | 52 | 1015.3 |
| 20260503212901 | 56 | 298 | 2.0 | 12.0 | 0.00 | 0.00 | 0.00 | 47 | 1015.2 |
| 20260503211914 | 58 | 226 | 1.0 | 0.0 | 0.00 | 0.00 | 0.00 | 41 | 1014.9 |
| 20260503210937 | 59 | 225 | 0.0 | 13.0 | 0.00 | 0.00 | 0.00 | 35 | 1014.7 |
| 20260503204851 | 61 | 242 | 0.0 | 0.0 | 0.00 | 0.00 | 0.00 | 32 | 1014.5 |